| time (UTC) | temp F | wind direction | speed knots | gust knots | rain 1hr in | rain 24hr in | rain mn in | humidity % | barometer mb |
| 20260505040925 | 59 | 191 | 1.7 | 2.6 | 0.00 | 0.00 | 0.00 | 80 | 1011.6 |
| 20260505040005 | 59 | 193 | 1.7 | 2.6 | 0.00 | 0.00 | 0.00 | 80 | 1011.6 |
| 20260505035426 | 60 | 191 | 0.9 | 2.6 | 0.00 | 0.00 | 0.00 | 80 | 1011.6 |
| 20260505034504 | 60 | 190 | 1.7 | 2.6 | 0.00 | 0.00 | 0.00 | 81 | 1011.7 |
| 20260505033605 | 60 | 190 | 0.9 | 1.7 | 0.00 | 0.00 | 0.00 | 80 | 1011.7 |
| 20260505032705 | 61 | 190 | 0.0 | 1.7 | 0.00 | 0.00 | 0.00 | 78 | 1011.7 |
| 20260505031804 | 61 | 190 | 0.0 | 0.9 | 0.00 | 0.00 | 0.00 | 78 | 1011.7 |
| 20260505030904 | 61 | 190 | 0.0 | 1.7 | 0.00 | 0.00 | 0.00 | 78 | 1011.6 |
| 20260505030005 | 62 | 190 | 0.9 | 1.7 | 0.00 | 0.00 | 0.00 | 77 | 1011.6 |
| 20260505025425 | 62 | 190 | 0.9 | 1.7 | 0.00 | 0.00 | 0.00 | 75 | 1011.5 |
| 20260505024504 | 62 | 190 | 0.9 | 1.7 | 0.00 | 0.00 | 0.00 | 75 | 1011.5 |
| 20260505023604 | 62 | 190 | 0.0 | 0.9 | 0.00 | 0.00 | 0.00 | 75 | 1011.5 |
| 20260505022705 | 63 | 190 | 0.9 | 1.7 | 0.00 | 0.00 | 0.00 | 74 | 1011.4 |
| 20260505021826 | 63 | 190 | 0.0 | 1.7 | 0.00 | 0.00 | 0.00 | 73 | 1011.2 |
| 20260505020904 | 64 | 196 | 1.7 | 2.6 | 0.00 | 0.00 | 0.00 | 72 | 1011.1 |
| 20260505020004 | 64 | 200 | 0.9 | 2.6 | 0.00 | 0.00 | 0.00 | 73 | 1011.1 |
| 20260505015404 | 65 | 190 | 0.9 | 0.9 | 0.00 | 0.00 | 0.00 | 70 | 1011.0 |
| 20260505014504 | 65 | 190 | 0.9 | 1.7 | 0.00 | 0.00 | 0.00 | 69 | 1011.1 |
| 20260505013604 | 66 | 190 | 0.9 | 1.7 | 0.00 | 0.00 | 0.00 | 69 | 1011.0 |
| 20260505012705 | 66 | 196 | 0.9 | 2.6 | 0.00 | 0.00 | 0.00 | 67 | 1010.9 |
| 20260505011804 | 67 | 204 | 0.9 | 2.6 | 0.00 | 0.00 | 0.00 | 65 | 1010.9 |
| 20260505010904 | 68 | 187 | 1.7 | 3.5 | 0.00 | 0.00 | 0.00 | 64 | 1010.9 |
| 20260505010005 | 69 | 184 | 0.9 | 2.6 | 0.00 | 0.00 | 0.00 | 62 | 1010.8 |
| 20260505005404 | 69 | 181 | 0.9 | 2.6 | 0.00 | 0.00 | 0.00 | 59 | 1011.0 |
| 20260505004504 | 70 | 179 | 1.7 | 2.6 | 0.00 | 0.00 | 0.00 | 57 | 1011.0 |
| 20260505003604 | 71 | 179 | 1.7 | 4.3 | 0.00 | 0.00 | 0.00 | 55 | 1011.0 |
| 20260505002704 | 72 | 188 | 1.7 | 5.2 | 0.00 | 0.00 | 0.00 | 55 | 1010.9 |
| 20260505001804 | 73 | 189 | 2.6 | 5.2 | 0.00 | 0.00 | 0.00 | 51 | 1010.9 |
| 20260505000904 | 74 | 195 | 2.6 | 7.0 | 0.00 | 0.00 | 0.00 | 48 | 1010.9 |
| 20260505000004 | 74 | 191 | 2.6 | 7.8 | 0.00 | 0.00 | 0.00 | 47 | 1010.9 |
| 20260504235425 | 74 | 207 | 2.6 | 10.4 | 0.00 | 0.00 | 0.00 | 47 | 1010.9 |
| 20260504234505 | 75 | 193 | 2.6 | 7.0 | 0.00 | 0.00 | 0.00 | 45 | 1010.8 |
| 20260504233604 | 76 | 191 | 3.5 | 10.4 | 0.00 | 0.00 | 0.00 | 46 | 1010.9 |
| 20260504232704 | 76 | 183 | 5.2 | 10.4 | 0.00 | 0.00 | 0.00 | 43 | 1010.9 |
| 20260504231804 | 76 | 189 | 5.2 | 14.8 | 0.00 | 0.00 | 0.00 | 43 | 1010.8 |
| 20260504230925 | 77 | 191 | 5.2 | 13.9 | 0.00 | 0.00 | 0.00 | 42 | 1010.9 |
| 20260504230005 | 78 | 196 | 4.3 | 8.7 | 0.00 | 0.00 | 0.00 | 42 | 1010.9 |
| 20260504225404 | 78 | 206 | 4.3 | 9.6 | 0.00 | 0.00 | 0.00 | 41 | 1010.9 |
| 20260504224504 | 79 | 202 | 4.3 | 10.4 | 0.00 | 0.00 | 0.00 | 42 | 1010.9 |
| 20260504223604 | 79 | 210 | 4.3 | 13.9 | 0.00 | 0.00 | 0.00 | 42 | 1010.9 |
| 20260504222704 | 80 | 210 | 4.3 | 12.2 | 0.00 | 0.00 | 0.00 | 39 | 1010.9 |
| 20260504221825 | 80 | 204 | 6.1 | 14.8 | 0.00 | 0.00 | 0.00 | 40 | 1010.9 |
| 20260504220904 | 80 | 194 | 6.1 | 13.0 | 0.00 | 0.00 | 0.00 | 40 | 1011.1 |
| 20260504220025 | 80 | 199 | 5.2 | 16.5 | 0.00 | 0.00 | 0.00 | 41 | 1011.1 |
| 20260504215404 | 80 | 200 | 5.2 | 16.5 | 0.00 | 0.00 | 0.00 | 39 | 1011.0 |
| 20260504214504 | 81 | 202 | 5.2 | 11.3 | 0.00 | 0.00 | 0.00 | 41 | 1011.0 |
| 20260504213604 | 81 | 207 | 4.3 | 11.3 | 0.00 | 0.00 | 0.00 | 39 | 1011.1 |
| 20260504212725 | 82 | 203 | 3.5 | 9.6 | 0.00 | 0.00 | 0.00 | 43 | 1011.3 |
| 20260504211804 | 81 | 204 | 5.2 | 13.9 | 0.00 | 0.00 | 0.00 | 42 | 1011.2 |
| 20260504210904 | 81 | 196 | 4.3 | 11.3 | 0.00 | 0.00 | 0.00 | 39 | 1011.2 |
| 20260504210004 | 80 | 200 | 7.0 | 17.4 | 0.00 | 0.00 | 0.00 | 40 | 1011.5 |
| 20260504205404 | 80 | 195 | 7.8 | 17.4 | 0.00 | 0.00 | 0.00 | 41 | 1011.7 |
| 20260504204504 | 81 | 189 | 6.1 | 17.4 | 0.00 | 0.00 | 0.00 | 43 | 1011.7 |
| 20260504203604 | 81 | 185 | 5.2 | 12.2 | 0.00 | 0.00 | 0.00 | 40 | 1011.6 |
| 20260504202704 | 80 | 189 | 7.0 | 13.9 | 0.00 | 0.00 | 0.00 | 40 | 1011.9 |
| 20260504201804 | 81 | 200 | 4.3 | 11.3 | 0.00 | 0.00 | 0.00 | 42 | 1012.0 |
| 20260504200925 | 81 | 207 | 5.2 | 13.0 | 0.00 | 0.00 | 0.00 | 41 | 1012.2 |
| 20260504200004 | 81 | 189 | 6.1 | 13.9 | 0.00 | 0.00 | 0.00 | 40 | 1012.3 |
| 20260504195404 | 81 | 183 | 7.8 | 18.2 | 0.00 | 0.00 | 0.00 | 39 | 1012.4 |
| 20260504194504 | 81 | 188 | 5.2 | 12.2 | 0.00 | 0.00 | 0.00 | 41 | 1012.4 |
| 20260504193604 | 81 | 204 | 4.3 | 13.0 | 0.00 | 0.00 | 0.00 | 43 | 1012.7 |
| 20260504192704 | 80 | 211 | 4.3 | 12.2 | 0.00 | 0.00 | 0.00 | 42 | 1012.7 |
| 20260504191804 | 81 | 202 | 6.1 | 12.2 | 0.00 | 0.00 | 0.00 | 44 | 1012.7 |
| 20260504190925 | 81 | 189 | 4.3 | 12.2 | 0.00 | 0.00 | 0.00 | 42 | 1012.8 |
| 20260504190004 | 80 | 193 | 6.1 | 12.2 | 0.00 | 0.00 | 0.00 | 43 | 1012.9 |
| 20260504185404 | 80 | 189 | 5.2 | 12.2 | 0.00 | 0.00 | 0.00 | 43 | 1013.1 |
| 20260504184504 | 80 | 199 | 5.2 | 14.8 | 0.00 | 0.00 | 0.00 | 41 | 1013.1 |
| 20260504183604 | 80 | 208 | 4.3 | 12.2 | 0.00 | 0.00 | 0.00 | 37 | 1013.0 |
| 20260504182704 | 79 | 206 | 4.3 | 12.2 | 0.00 | 0.00 | 0.00 | 44 | 1013.1 |
| 20260504181804 | 80 | 189 | 4.3 | 13.0 | 0.00 | 0.00 | 0.00 | 44 | 1013.2 |
| 20260504180904 | 79 | 187 | 6.1 | 13.9 | 0.00 | 0.00 | 0.00 | 44 | 1013.4 |
| 20260504180004 | 80 | 195 | 4.3 | 12.2 | 0.00 | 0.00 | 0.00 | 43 | 1013.2 |
| 20260504175404 | 79 | 197 | 4.3 | 11.3 | 0.00 | 0.00 | 0.00 | 45 | 1013.3 |
| 20260504174504 | 79 | 190 | 5.2 | 13.9 | 0.00 | 0.00 | 0.00 | 46 | 1013.4 |
| 20260504173604 | 79 | 195 | 5.2 | 14.8 | 0.00 | 0.00 | 0.00 | 43 | 1013.6 |
| 20260504172704 | 79 | 188 | 4.3 | 9.6 | 0.00 | 0.00 | 0.00 | 47 | 1013.8 |
| 20260504171804 | 78 | 206 | 5.2 | 10.4 | 0.00 | 0.00 | 0.00 | 51 | 1013.9 |
| 20260504170925 | 77 | 208 | 5.2 | 10.4 | 0.00 | 0.00 | 0.00 | 48 | 1014.0 |
| 20260504150903 | 72 | 205 | 3.5 | 7.8 | 0.00 | 0.00 | 0.00 | 59 | 1015.3 |
| 20260504140925 | 63 | 201 | 2.6 | 8.7 | 0.00 | 0.00 | 0.00 | 73 | 1015.5 |
| 20260504081803 | 53 | 185 | 1.7 | 2.6 | 0.00 | 0.00 | 0.00 | 79 | 1015.2 |
| 20260504080903 | 54 | 195 | 1.7 | 3.5 | 0.00 | 0.00 | 0.00 | 77 | 1015.2 |
| 20260504050006 | 52 | 175 | 0.9 | 2.6 | 0.00 | 0.00 | 0.00 | 84 | 1016.7 |
| 20260504045404 | 52 | 169 | 1.7 | 2.6 | 0.00 | 0.00 | 0.00 | 83 | 1016.6 |
| 20260504044505 | 52 | 155 | 1.7 | 2.6 | 0.00 | 0.00 | 0.00 | 84 | 1016.7 |
| 20260504043625 | 52 | 154 | 0.9 | 1.7 | 0.00 | 0.00 | 0.00 | 84 | 1016.6 |
| 20260504042725 | 52 | 154 | 0.9 | 2.6 | 0.00 | 0.00 | 0.00 | 84 | 1016.7 |